FW4339 Weather Reports


Display with metric or nautical units.
time (UTC)temp
F
wind
direction
speed
MPH
gust
MPH
rain 1hr
in
rain 24hr
in
rain mn
in
humidity
%
barometer
mb
20260902041547 78 0.0 0.0 0.00 0.00 0.00 51 1013.7
20260901173022 84 0.0 0.0 0.00 0.00 0.00 44 1012.3
20260901171520 86 0.0 0.0 0.00 0.00 0.00 42 1012.3
20260901170046 87 0.0 0.0 0.00 0.00 0.00 42 1012.1
20260901164514 88 0.0 0.0 0.00 0.00 0.00 41 1012.1
20260901163021 88 0.0 0.0 0.00 0.00 0.00 40 1012.0
20260901161505 89 0.0 0.0 0.00 0.00 0.00 39 1011.9
20260901160004 90 0.0 0.0 0.00 0.00 0.00 38 1011.8
20260901154612 91 0.0 0.0 0.00 0.00 0.00 37 1011.7
20260901153004 92 0.0 0.0 0.00 0.00 0.00 35 1011.8
20260901151500 93 0.0 0.0 0.00 0.00 0.00 35 1011.8
20260901150107 93 0.0 0.0 0.00 0.00 0.00 34 1011.7
20260901144554 95 0.0 0.0 0.00 0.00 0.00 33 1011.7
20260901111509 98 0.0 0.0 0.00 0.00 0.00 29 1012.6
20260901110009 98 0.0 0.0 0.00 0.00 0.00 29 1012.7
20260901104505 99 0.0 0.0 0.00 0.00 0.00 28 1012.7
20260901103016 99 0.0 0.0 0.00 0.00 0.00 27 1012.7
20260901101508 99 0.0 0.0 0.00 0.00 0.00 27 1012.6
20260901100004 98 0.0 0.0 0.00 0.00 0.00 28 1012.8
20260901094504 98 0.0 0.0 0.00 0.00 0.00 28 1013.0
20260901093057 96 0.0 0.0 0.00 0.00 0.00 30 1013.0
20260901091554 95 0.0 0.0 0.00 0.00 0.00 30 1012.9
20260901090149 93 0.0 0.0 0.00 0.00 0.00 32 1012.9
20260901084556 92 0.0 0.0 0.00 0.00 0.00 34 1013.0
20260901083044 91 0.0 0.0 0.00 0.00 0.00 38 1013.2
20260901081539 90 0.0 0.0 0.00 0.00 0.00 40 1013.2
20260901080035 90 0.0 0.0 0.00 0.00 0.00 40 1012.9
20260901074530 88 0.0 0.0 0.00 0.00 0.00 43 1012.9
20260901073028 86 0.0 0.0 0.00 0.00 0.00 45 1012.9
20260901071525 85 0.0 0.0 0.00 0.00 0.00 47 1012.9
20260901070020 84 0.0 0.0 0.00 0.00 0.00 47 1012.9
20260901064516 82 0.0 0.0 0.00 0.00 0.00 49 1012.9
20260901063013 81 0.0 0.0 0.00 0.00 0.00 53 1012.9
20260901061511 80 0.0 0.0 0.00 0.00 0.00 56 1012.9
20260901060004 79 0.0 0.0 0.00 0.00 0.00 57 1012.9
20260901054600 78 0.0 0.0 0.00 0.00 0.00 56 1012.8
20260901053059 78 0.0 0.0 0.00 0.00 0.00 56 1012.8
20260901051611 78 0.0 0.0 0.00 0.00 0.00 56 1012.9
20260901050048 77 0.0 0.0 0.00 0.00 0.00 54 1012.8
20260901044545 77 0.0 0.0 0.00 0.00 0.00 53 1012.7
20260901043052 77 0.0 0.0 0.00 0.00 0.00 51 1012.6